When you browse on this site, cookies collect data to enhance your experience and personalize the content and advertising you see.
Visit our Privacy Policy to learn more. By continuing to use the site, you agree to this use of cookies and data.

Previsão horária em Aalst

Hoje, 28 Setembro, Segunda-feira

Tempo Temperatura Precipitação Vento Pressão Humidade
00:00 +12°C° 0.1 mm 0 m/s 754 mmHg 77%
01:00 +13°C° 0 mm 1 m/s 754 mmHg 78%
02:00 +13°C° 0 mm 1 m/s 754 mmHg 80%
03:00 +13°C° 0 mm 1 m/s 754 mmHg 81%
04:00 +13°C° 0.2 mm 2 m/s 754 mmHg 83%
05:00 +13°C° 0.2 mm 2 m/s 754 mmHg 84%
06:00 +13°C° 0.2 mm 2 m/s 754 mmHg 86%
07:00 +12°C° 1.5 mm 3 m/s 754 mmHg 89%
08:00 +12°C° 1.5 mm 4 m/s 754 mmHg 91%
09:00 +12°C° 1.5 mm 4 m/s 754 mmHg 94%
10:00 +13°C° 0.7 mm 4 m/s 754 mmHg 94%
11:00 +13°C° 0.7 mm 4 m/s 754 mmHg 94%
12:00 +14°C° 0.7 mm 4 m/s 755 mmHg 95%
13:00 +14°C° 1.1 mm 4 m/s 755 mmHg 95%
14:00 +15°C° 1.1 mm 4 m/s 755 mmHg 95%
15:00 +15°C° 1.1 mm 5 m/s 755 mmHg 95%
16:00 +15°C° 0.7 mm 5 m/s 755 mmHg 95%
17:00 +15°C° 0.7 mm 5 m/s 756 mmHg 95%
18:00 +15°C° 0.7 mm 5 m/s 756 mmHg 94%
19:00 +15°C° 0.2 mm 5 m/s 756 mmHg 94%
20:00 +14°C° 0.2 mm 5 m/s 757 mmHg 93%
21:00 +14°C° 0.2 mm 4 m/s 757 mmHg 93%
22:00 +14°C° 0.1 mm 4 m/s 757 mmHg 91%
23:00 +14°C° 0.1 mm 4 m/s 757 mmHg 90%

Amanhã, 29 Setembro, Terça-feira

Tempo Temperatura Precipitação Vento Pressão Humidade
00:00 +13°C° 0.1 mm 3 m/s 757 mmHg 89%
01:00 +13°C° 0 mm 3 m/s 757 mmHg 87%
02:00 +12°C° 0 mm 3 m/s 758 mmHg 84%
03:00 +12°C° 0 mm 3 m/s 758 mmHg 82%
04:00 +11°C° 0 mm 3 m/s 758 mmHg 85%
05:00 +11°C° 0 mm 3 m/s 758 mmHg 88%
06:00 +11°C° 0 mm 3 m/s 758 mmHg 90%
07:00 +12°C° 0 mm 3 m/s 759 mmHg 88%
08:00 +14°C° 0 mm 3 m/s 759 mmHg 85%
09:00 +16°C° 0 mm 3 m/s 759 mmHg 82%
10:00 +17°C° 0 mm 3 m/s 759 mmHg 78%
11:00 +18°C° 0 mm 3 m/s 759 mmHg 75%
12:00 +20°C° 0 mm 3 m/s 759 mmHg 71%
13:00 +20°C° 0.2 mm 2 m/s 759 mmHg 72%
14:00 +20°C° 0.2 mm 2 m/s 759 mmHg 72%
15:00 +21°C° 0.2 mm 1 m/s 759 mmHg 73%
16:00 +19°C° 0.8 mm 2 m/s 759 mmHg 78%
17:00 +18°C° 0.8 mm 2 m/s 759 mmHg 83%
18:00 +17°C° 0.8 mm 2 m/s 759 mmHg 88%
19:00 +16°C° 0.4 mm 2 m/s 759 mmHg 90%
20:00 +16°C° 0.4 mm 2 m/s 759 mmHg 92%
21:00 +15°C° 0.4 mm 2 m/s 759 mmHg 93%
22:00 +15°C° 0 mm 2 m/s 759 mmHg 94%
23:00 +14°C° 0 mm 2 m/s 759 mmHg 94%

Depois de amanhã, 30 Setembro, Quarta-feira

Tempo Temperatura Precipitação Vento Pressão Humidade
00:00 +13°C° 0 mm 2 m/s 759 mmHg 95%
01:00 +13°C° 0 mm 2 m/s 759 mmHg 94%
02:00 +13°C° 0 mm 2 m/s 758 mmHg 93%
03:00 +12°C° 0 mm 2 m/s 758 mmHg 92%
04:00 +13°C° 0 mm 2 m/s 758 mmHg 92%
05:00 +13°C° 0 mm 2 m/s 758 mmHg 92%
06:00 +13°C° 0 mm 2 m/s 758 mmHg 93%
07:00 +14°C° 0 mm 2 m/s 758 mmHg 91%
08:00 +14°C° 0 mm 3 m/s 758 mmHg 89%
09:00 +16°C° 0 mm 3 m/s 757 mmHg 87%
10:00 +16°C° 0 mm 3 m/s 757 mmHg 86%
11:00 +17°C° 0 mm 4 m/s 757 mmHg 85%
12:00 +17°C° 0 mm 4 m/s 757 mmHg 84%
13:00 +18°C° 0.7 mm 4 m/s 756 mmHg 82%
14:00 +17°C° 0.7 mm 5 m/s 755 mmHg 81%
15:00 +19°C° 0.7 mm 5 m/s 755 mmHg 79%
16:00 +17°C° 0.6 mm 5 m/s 754 mmHg 82%
17:00 +17°C° 0.6 mm 4 m/s 754 mmHg 84%
18:00 +15°C° 0.6 mm 4 m/s 754 mmHg 87%
19:00 +15°C° 0.3 mm 4 m/s 753 mmHg 87%
20:00 +15°C° 0.3 mm 4 m/s 753 mmHg 87%
21:00 +15°C° 0.3 mm 5 m/s 753 mmHg 87%
22:00 +15°C° 0.4 mm 5 m/s 752 mmHg 88%
23:00 +15°C° 0.4 mm 4 m/s 752 mmHg 89%

1 Outubro, Quinta-feira

Tempo Temperatura Precipitação Vento Pressão Humidade
00:00 +15°C° 0.4 mm 4 m/s 751 mmHg 90%
01:00 +15°C° 0.6 mm 4 m/s 751 mmHg 91%
02:00 +14°C° 0.6 mm 5 m/s 750 mmHg 91%
03:00 +14°C° 0.6 mm 5 m/s 750 mmHg 91%
04:00 +14°C° 1.5 mm 4 m/s 749 mmHg 92%
05:00 +14°C° 1.5 mm 4 m/s 749 mmHg 92%
06:00 +13°C° 1.5 mm 3 m/s 749 mmHg 93%
07:00 +14°C° 0.2 mm 3 m/s 749 mmHg 91%
08:00 +14°C° 0.2 mm 3 m/s 748 mmHg 89%
09:00 +14°C° 0.2 mm 3 m/s 748 mmHg 86%
10:00 +14°C° 1.3 mm 3 m/s 748 mmHg 87%
11:00 +14°C° 1.3 mm 3 m/s 748 mmHg 88%
12:00 +13°C° 1.3 mm 3 m/s 748 mmHg 89%
13:00 +13°C° 1.2 mm 4 m/s 748 mmHg 87%
14:00 +13°C° 1.2 mm 4 m/s 748 mmHg 86%
15:00 +13°C° 1.2 mm 4 m/s 748 mmHg 84%
16:00 +12°C° 0.1 mm 4 m/s 749 mmHg 85%
17:00 +11°C° 0.1 mm 3 m/s 749 mmHg 85%
18:00 +11°C° 0.1 mm 3 m/s 750 mmHg 85%
19:00 +10°C° 0 mm 3 m/s 750 mmHg 84%
20:00 +10°C° 0 mm 3 m/s 750 mmHg 83%
21:00 +9°C° 0 mm 3 m/s 750 mmHg 82%
22:00 +9°C° 0 mm 3 m/s 749 mmHg 82%
23:00 +9°C° 0 mm 3 m/s 749 mmHg 83%

2 Outubro, Sexta-feira

Tempo Temperatura Precipitação Vento Pressão Humidade
00:00 +8°C° 0 mm 3 m/s 748 mmHg 84%
01:00 +8°C° 0 mm 4 m/s 748 mmHg 85%
02:00 +8°C° 0 mm 5 m/s 747 mmHg 86%
03:00 +8°C° 0 mm 5 m/s 746 mmHg 86%
04:00 +8°C° 0 mm 5 m/s 745 mmHg 87%
05:00 +8°C° 0 mm 5 m/s 745 mmHg 88%
06:00 +8°C° 0 mm 6 m/s 744 mmHg 89%
07:00 +9°C° 0.8 mm 6 m/s 742 mmHg 89%
08:00 +10°C° 0.8 mm 7 m/s 741 mmHg 90%
09:00 +10°C° 0.8 mm 8 m/s 740 mmHg 90%
10:00 +11°C° 1.7 mm 8 m/s 739 mmHg 89%
11:00 +11°C° 1.7 mm 9 m/s 738 mmHg 88%
12:00 +11°C° 1.7 mm 10 m/s 736 mmHg 88%
13:00 +12°C° 0.3 mm 9 m/s 736 mmHg 87%
14:00 +13°C° 0.3 mm 9 m/s 735 mmHg 86%
15:00 +15°C° 0.3 mm 8 m/s 734 mmHg 86%
16:00 +13°C° 1 mm 9 m/s 734 mmHg 86%
17:00 +13°C° 1 mm 10 m/s 733 mmHg 86%
18:00 +13°C° 1 mm 10 m/s 732 mmHg 87%
19:00 +13°C° 0.3 mm 10 m/s 732 mmHg 87%
20:00 +13°C° 0.3 mm 9 m/s 732 mmHg 87%
21:00 +13°C° 0.3 mm 8 m/s 732 mmHg 88%
22:00 +12°C° 0.3 mm 7 m/s 732 mmHg 88%
23:00 +12°C° 0.3 mm 5 m/s 733 mmHg 89%

3 Outubro, Sábado

Tempo Temperatura Precipitação Vento Pressão Humidade
00:00 +12°C° 0.3 mm 4 m/s 733 mmHg 90%
01:00 +12°C° 0.3 mm 3 m/s 733 mmHg 91%
02:00 +11°C° 0.3 mm 3 m/s 733 mmHg 91%
03:00 +11°C° 0.3 mm 3 m/s 733 mmHg 91%
04:00 +11°C° 0.2 mm 3 m/s 734 mmHg 90%
05:00 +11°C° 0.2 mm 3 m/s 734 mmHg 89%
06:00 +10°C° 0.2 mm 3 m/s 735 mmHg 88%
07:00 +11°C° 0 mm 3 m/s 735 mmHg 85%
08:00 +11°C° 0 mm 4 m/s 736 mmHg 82%
09:00 +12°C° 0 mm 4 m/s 736 mmHg 78%
10:00 +12°C° 0.1 mm 4 m/s 737 mmHg 75%
11:00 +13°C° 0.1 mm 4 m/s 737 mmHg 71%
12:00 +13°C° 0.1 mm 5 m/s 737 mmHg 68%
13:00 +13°C° 0 mm 5 m/s 737 mmHg 66%
14:00 +13°C° 0 mm 4 m/s 738 mmHg 65%
15:00 +13°C° 0 mm 4 m/s 738 mmHg 64%
16:00 +12°C° 0 mm 4 m/s 738 mmHg 68%
17:00 +11°C° 0 mm 4 m/s 738 mmHg 71%
18:00 +10°C° 0 mm 3 m/s 738 mmHg 75%
19:00 +10°C° 0 mm 4 m/s 738 mmHg 75%
20:00 +8°C° 0 mm 4 m/s 738 mmHg 76%
21:00 +8°C° 0 mm 5 m/s 738 mmHg 77%
22:00 +8°C° 0 mm 5 m/s 738 mmHg 79%
23:00 +8°C° 0 mm 5 m/s 738 mmHg 81%
Mostrar mais